Regional Weather Roundup
Issued by NWS Tiyan, Guam

Home | Current Version | Previous Version | Text Only | Print | Product List | Glossary On
Versions: 1 2 3 4 5 6 7 8 9 10 11 12 13 14 15 16 17 18 19 20 21 22 23 24 25 26 27 28 29 30 31 32 33 34 35 36 37 38 39 40 41 42 43 44 45 46 47 48 49 50
000
ASGM40 PGUM 111012
RWRGUM
WEATHER ROUNDUP FOR THE MARIANAS
NATIONAL WEATHER SERVICE TIYAN GU
800 PM CHST SUN DEC 11 2016

GUZ001>004-111100-
MARIANA ISLANDS-

CITY           SKY/WX    TMP DP  RH WIND       PRES   REMARKS
GUAM AIRPORT   PTCLDY    82  75  78 E9        29.84R
ANDERSEN AFB   PTCLDY    79  73  83 E12       29.85R
ROTA AIRPORT   PTCLDY    79  73  83 E12       29.85R
TINIAN AP      PTCLDY    82  75  78 E8        29.83
SAIPAN AP      MOCLDY    81  73  78 E9        29.84R

$$




USA.gov is the U.S. government's official web portal to all federal, state and local government web resources and services.